Theta_e
312 315 315 313 314 313 313 315 316 316 314 314 314 315 315 313 312 312 313 312 315 316 319 325 328 329 328 329 329 330 329 327 327 325 326 327 328 330 327 330 327 327 325 324
313 314 311 311 313 313 315 316 317 315 314 314 316 313 313 312 311 310 310 311 312 313 314 317 324 327 328 330 329 329 328 328 328 327 326 326 327 329 328 328 326 324 324 325
312 311 309 311 314 315 315 318 316 314 315 314 314 314 311 310 309 309 308 309 310 310 311 313 321 325 325 326 328 329 329 328 328 331 329 327 329 327 328 326 325 325 325 326
311 310 309 311 314 313 315 314 313 316 317 322 313 320 311 308 309 308 307 306 308 308 309 310 314 317 319 321 322 326 329 329 329 329 328 328 328 327 326 326 327 327 326 324
311 309 310 312 311 311 314 312 313 316 319 319 316 320 314 311 311 307 306 307 308 309 308 309 310 310 312 314 315 318 323 327 328 328 329 328 329 328 327 327 327 327 327 327
309 309 309 310 310 311 312 314 315 316 317 324 315 317 315 311 309 306 306 308 309 309 309 309 310 310 309 309 309 310 311 320 322 323 325 326 325 325 326 325 326 326 326 326
311 311 309 308 312 313 312 316 323 323 322 318 312 315 313 309 308 307 308 310 310 310 310 309 310 310 309 309 311 311 310 310 311 313 316 320 320 318 317 321 322 324 323 321
312 313 310 309 310 311 312 313 317 321 319 316 312 313 312 308 306 306 308 307 308 309 310 310 310 309 309 310 310 311 312 312 312 313 311 310 310 312 313 312 313 313 314 316
311 311 309 308 308 309 311 313 311 315 312 316 312 312 309 308 308 307 307 305 305 305 306 309 309 309 309 308 309 309 310 311 311 312 312 312 313 313 314 313 312 313 313 314
310 310 309 309 309 309 310 310 314 316 319 317 312 311 310 309 308 307 306 304 303 303 302 302 304 305 305 306 308 308 309 309 309 310 310 311 311 312 312 312 313 312 312 312
309 309 310 309 311 310 312 312 311 311 312 315 314 311 308 308 306 305 303 302 301 301 300 300 301 303 304 304 304 304 304 305 306 308 310 310 311 311 310 310 312 312 313 312
308 309 310 310 306 306 309 311 311 312 312 311 312 312 308 307 304 303 301 301 300 300 300 300 299 299 299 300 300 302 304 304 303 303 303 304 304 304 305 305 307 308 309 310
308 309 312 310 309 308 310 310 310 310 309 311 314 312 308 306 303 301 301 301 300 300 300 300 299 299 299 299 299 299 300 301 303 304 304 303 303 303 303 303 303 304 304 305
307 307 309 311 308 307 309 309 309 310 312 311 310 310 308 306 303 302 301 301 300 300 300 300 299 299 299 299 299 299 299 299 300 300 302 304 304 303 303 303 303 303 303 303
307 308 306 307 306 305 306 307 308 310 311 310 310 310 309 307 304 302 301 300 300 299 299 299 298 298 298 298 299 298 299 299 299 299 299 300 301 303 304 304 303 303 303 302
304 307 303 304 305 303 302 304 305 306 309 310 308 310 309 306 304 302 301 300 300 299 299 298 298 298 298 298 298 298 298 298 298 299 299 299 299 300 301 302 304 304 303 303
304 304 303 306 298 298 301 299 304 305 308 310 310 309 307 304 303 302 301 300 299 299 298 298 298 298 298 298 298 298 298 298 298 298 298 299 299 300 300 300 301 302 303 303
300 301 301 304 298 303 302 299 299 304 306 309 307 308 306 304 304 302 301 300 299 298 298 298 298 298 298 298 298 298 297 297 298 298 298 298 299 299 300 300 300 301 301 302
300 300 302 304 303 304 300 297 298 301 304 305 308 306 305 303 302 301 300 299 299 298 298 298 298 298 298 298 298 297 297 297 298 298 298 298 299 299 299 300 301 301 301 301
298 299 302 298 302 302 300 298 297 299 301 303 305 303 301 301 303 302 299 298 298 298 298 298 297 297 297 297 297 297 297 297 297 298 298 298 298 298 299 299 300 301 301 302
299 299 302 301 301 304 300 299 298 301 302 301 304 302 301 301 302 302 299 298 298 298 298 297 297 297 297 297 297 297 297 297 297 298 298 298 298 298 298 299 299 299 300 301
301 302 300 301 301 301 297 297 299 300 298 299 302 301 301 300 299 300 298 298 298 298 298 298 297 297 297 298 298 298 297 297 297 297 298 298 299 298 298 298 299 299 299 299
301 302 302 301 301 298 297 300 298 298 300 299 299 299 299 298 298 298 298 298 298 298 298 298 298 298 297 297 297 297 297 297 297 297 297 297 298 299 299 298 298 298 298 298
297 298 298 297 300 298 297 297 297 298 299 299 298 298 299 298 298 298 298 298 298 298 298 297 297 297 296 296 295 295 295 295 295 295 296 296 297 297 298 299 299 298 298 298
299 297 299 298 298 297 297 297 297 298 299 299 299 299 298 298 298 298 298 298 298 297 296 296 296 295 295 294 294 293 293 294 294 294 294 294 294 295 296 297 297 299 299 298
296 298 299 300 299 299 300 298 297 298 298 299 299 298 298 298 298 298 298 298 297 296 296 295 294 294 294 293 293 293 293 293 293 293 294 294 294 294 294 294 295 296 297 298
Wind_Speed
1 5 4 9 8 8 11 15 16 16 10 2 12 9 4 8 15 16 14 14 10 8 3 10 6 7 14 20 22 19 18 20 21 23 23 24 24 21 21 19 18 16 16 15
4 5 5 7 8 6 9 11 8 9 4 3 11 6 9 10 14 14 15 17 12 9 14 6 15 14 13 21 20 22 20 19 20 22 24 23 22 23 21 20 18 18 16 16
6 4 6 7 8 8 7 4 5 5 5 8 5 1 5 8 14 14 19 16 16 16 13 24 17 15 8 11 11 18 14 17 17 19 19 21 20 21 19 17 15 15 17 18
6 2 6 8 6 7 7 4 11 8 4 2 2 1 3 5 10 16 21 18 16 18 10 34 33 24 19 9 4 4 12 19 17 16 17 18 21 20 18 17 14 13 14 15
3 6 9 7 5 9 7 16 11 4 2 3 8 3 3 4 7 8 14 15 6 20 36 26 36 33 29 25 19 13 6 13 15 18 19 21 19 18 17 16 14 13 15 15
11 5 3 5 13 8 11 10 3 6 2 1 9 6 4 6 6 7 8 8 12 28 29 16 34 31 29 27 27 22 19 13 9 8 12 10 10 11 13 11 12 10 12 9
4 7 2 3 9 2 13 11 2 4 1 4 9 5 3 10 8 9 12 16 10 19 20 26 33 33 28 23 24 24 24 21 20 14 13 11 7 9 10 9 5 1 2 4
3 3 4 7 3 4 8 5 4 5 4 3 7 7 7 10 9 9 8 11 12 10 13 19 19 22 23 18 17 17 15 22 23 19 17 17 14 13 9 10 9 6 6 6
3 3 0 0 2 4 4 4 2 3 1 2 2 3 2 7 9 12 12 13 14 15 19 16 13 13 13 25 23 17 17 15 10 20 18 13 11 9 13 9 7 10 8 8
2 6 2 3 3 3 3 4 1 2 4 2 3 3 5 6 7 9 11 14 17 18 19 15 12 12 12 8 8 7 11 20 20 20 18 18 17 11 6 6 6 7 8 9
3 2 0 4 4 4 1 1 2 2 3 3 1 4 4 6 5 7 10 12 14 15 14 13 15 15 15 11 8 4 3 4 3 3 4 5 5 5 4 5 5 8 7 5
3 4 4 2 1 1 1 2 2 3 1 2 3 4 4 7 6 7 8 9 11 11 12 13 16 18 16 15 14 12 11 9 7 4 4 3 3 3 4 5 4 5 5 4
1 1 4 2 2 2 0 1 2 4 2 3 2 5 6 8 9 7 6 6 7 9 12 13 14 14 15 16 16 16 15 14 11 8 8 7 6 6 6 6 7 7 6 5
1 3 6 4 4 2 3 2 2 3 2 1 4 9 12 10 10 10 9 5 5 7 8 10 12 14 15 16 16 17 16 15 13 12 10 8 7 7 6 6 6 6 5 5
2 3 3 9 7 6 6 7 7 6 5 4 3 8 14 14 13 13 10 8 6 6 7 9 11 12 13 13 13 14 15 15 16 15 12 11 9 8 8 8 7 7 7 7
3 1 1 3 6 6 5 11 10 10 9 7 4 5 11 16 15 13 13 10 7 6 6 8 8 9 10 10 12 14 14 15 16 15 15 14 13 10 8 8 8 9 9 8
3 3 2 3 3 5 6 12 15 8 8 9 8 7 14 13 15 15 12 8 7 5 5 5 6 7 7 9 10 12 14 15 15 16 16 15 14 13 12 11 10 9 9 9
4 3 1 3 3 5 1 2 1 12 9 11 1 8 17 17 15 15 12 10 6 2 3 5 6 6 6 6 8 11 13 14 14 14 15 15 15 15 13 12 12 13 13 13
4 4 2 3 4 8 10 6 5 8 10 12 11 9 14 15 14 11 12 9 7 3 1 2 3 5 7 7 9 11 12 12 12 13 14 14 14 14 14 13 13 13 13 13
3 5 5 2 4 5 2 5 4 4 6 18 17 17 20 20 9 8 17 14 7 1 2 2 2 4 6 9 10 11 12 11 12 12 13 14 15 15 15 14 14 14 14 14
4 3 9 7 6 7 4 10 7 5 1 20 22 22 22 10 4 17 20 13 5 2 1 3 4 5 8 10 12 12 11 11 11 11 11 12 13 14 14 14 13 14 14 14
10 9 5 5 5 10 13 8 7 1 5 15 17 19 20 10 11 19 17 9 4 2 1 3 3 4 7 10 12 12 13 15 16 16 16 15 16 17 17 17 16 15 15 14
6 7 6 9 6 2 22 1 14 2 7 11 16 17 20 17 18 17 10 7 5 3 2 3 4 5 7 11 13 14 14 14 15 15 16 17 19 20 20 21 21 21 20 19
6 9 4 3 8 16 11 18 8 10 7 13 16 22 22 19 16 13 10 7 4 2 2 3 5 7 7 8 11 13 15 17 18 18 18 18 21 23 24 25 25 25 26 26
6 14 8 5 7 5 15 17 19 15 14 17 18 22 17 15 13 13 10 7 4 3 4 5 4 4 7 11 14 16 19 22 23 24 24 23 24 25 27 29 31 32 31 31
12 8 8 7 11 15 8 25 25 23 24 23 22 19 17 15 15 12 10 7 5 5 3 0 4 9 13 15 17 20 22 24 26 27 27 27 29 29 30 32 34 34 35 36
Wind_Direction
197 271 334 336 338 316 293 303 307 314 323 281 252 222 273 29 22 7 358 1 347 16 300 210 198 202 209 195 186 188 200 208 208 211 216 219 215 215 221 226 236 230 231 229
222 260 7 324 315 305 311 295 307 308 338 251 55 44 42 40 29 22 11 9 7 30 55 135 178 141 139 186 197 199 212 214 212 215 220 220 219 218 226 233 238 236 230 236
282 352 332 316 319 341 328 246 299 279 289 72 7 54 356 11 5 21 25 8 19 52 47 81 123 156 168 126 139 204 220 218 211 215 216 219 223 227 226 228 235 236 239 240
279 303 310 318 319 344 317 349 326 326 255 319 15 310 29 336 357 19 16 12 14 52 42 68 83 89 94 90 124 202 186 202 213 220 225 217 218 221 225 230 229 231 239 241
48 312 326 311 351 326 280 325 307 308 346 240 7 317 22 336 359 1 15 17 295 60 55 47 76 79 72 67 65 79 144 194 201 210 209 216 217 221 221 232 232 241 238 239
277 311 280 308 308 284 290 297 238 239 245 154 360 336 47 4 328 316 326 318 13 55 65 45 72 77 74 61 47 53 59 105 131 192 215 220 199 200 215 224 219 229 226 228
258 229 300 295 316 156 342 341 246 228 353 37 357 26 47 336 350 321 306 317 6 59 57 56 64 69 70 65 49 41 50 52 65 61 78 117 103 88 73 129 121 90 218 163
322 207 343 14 22 315 321 356 12 326 350 9 23 11 6 352 7 349 330 24 22 53 54 56 64 66 73 72 62 47 32 41 43 46 55 68 59 53 35 33 46 22 356 349
309 231 271 153 323 309 354 40 4 297 296 248 53 135 107 22 35 44 36 47 44 45 48 58 54 72 79 75 70 64 43 47 28 35 36 49 51 35 16 357 9 348 327 341
32 292 75 341 250 195 328 341 185 206 302 7 90 59 81 39 29 33 35 38 39 45 52 47 58 62 59 62 71 63 70 66 60 58 57 55 61 54 37 332 337 295 278 283
312 274 69 256 28 22 71 47 334 283 319 332 150 102 40 86 53 49 44 45 45 52 50 57 58 61 61 57 57 43 23 31 52 21 2 19 50 57 318 300 301 273 267 252
38 315 281 341 12 348 348 23 296 291 60 16 327 114 117 103 95 88 72 52 50 52 52 57 59 59 58 58 53 45 39 35 30 2 7 358 332 327 303 304 296 289 295 302
112 239 291 219 178 198 328 17 307 279 260 225 260 133 142 133 132 118 99 77 59 47 43 43 48 49 51 51 49 44 42 40 32 11 9 8 359 351 337 340 333 332 332 316
297 306 267 307 354 340 274 262 276 287 266 167 249 137 165 164 159 152 141 115 69 56 51 47 46 42 43 42 41 41 40 39 33 28 21 3 347 339 336 335 327 315 316 312
245 259 252 283 280 272 272 271 267 253 264 253 71 194 177 175 168 164 151 142 122 85 60 52 45 38 33 34 36 38 36 31 29 27 22 15 8 352 336 325 324 324 327 319
180 233 320 268 248 259 272 265 257 249 253 256 254 204 163 168 159 158 162 156 130 105 74 47 34 29 31 33 29 25 21 20 19 16 14 9 3 359 347 335 324 319 314 312
184 181 181 257 323 299 258 241 219 216 212 215 200 189 166 167 172 167 168 161 135 100 58 32 23 13 11 16 19 18 13 11 10 7 5 4 1 354 347 338 330 319 313 307
155 155 211 301 294 245 70 116 345 229 226 218 171 166 175 174 168 163 165 161 139 75 13 354 356 5 3 359 2 3 1 1 360 359 360 358 356 353 348 340 330 323 317 312
223 181 227 250 235 312 269 202 179 175 238 219 206 171 173 151 147 170 173 166 158 172 286 348 2 12 4 352 343 343 349 347 348 350 354 358 356 353 349 342 332 322 314 308
202 258 239 160 254 257 31 153 164 151 264 191 187 172 162 159 178 183 177 179 182 266 330 340 325 326 333 338 337 342 347 345 347 342 347 350 353 351 349 344 337 326 315 305
164 203 220 218 252 280 204 149 159 169 300 171 178 173 166 174 145 157 175 178 200 210 321 315 322 343 354 360 6 3 354 341 339 333 325 331 331 335 335 332 327 322 314 304
178 179 187 189 230 259 150 133 205 55 115 163 176 172 171 168 160 163 169 181 192 198 287 352 7 5 353 347 348 351 347 344 342 340 334 322 320 321 322 318 314 310 302 293
212 203 179 205 215 118 187 245 209 273 171 170 174 180 171 164 157 164 176 182 197 240 281 321 345 353 347 340 342 343 337 329 325 322 320 315 306 304 304 306 306 303 299 292
234 203 213 148 229 231 216 223 235 223 194 177 179 174 173 172 178 181 181 187 215 242 283 305 326 334 350 356 355 345 337 334 331 326 324 316 309 305 298 293 291 290 290 288
186 169 184 240 259 277 240 224 218 206 192 173 167 172 183 188 189 184 188 210 224 238 272 298 323 7 1 358 353 344 337 331 327 324 322 319 311 305 300 294 290 285 281 277
185 187 197 226 201 218 232 225 209 204 194 185 181 186 197 198 189 193 207 214 230 263 257 124 15 4 357 353 346 333 323 318 317 318 320 318 314 310 305 299 293 286 282 278